WZZ93LC LHBP-HEGN

Flight info

Callsign WZZ93LC
Flight time 3h 20m
Altitude 33000
Route FAHAZ DCT KEROP DCT DONIV DCT NISVA DCT NIKTI UN127 IMR UG80 BANRO UN128 RDS UL995 VANZA DCT RASDA A16 CVO L315 SOKOT SOKOT1A
Aircraft A21N/M-SDE1E2E3FGIJ1J4RWXY/LB1

Departure

Time 2026-05-05 06:42
Airport Budapest Liszt Ferenc International Airport (LHBP)

Arrival

Time 2026-05-05 10:02
Airport Hurghada International Airport (HEGN)
Time Latitude Longitude Altitude Speed Heading
2026-05-05 06:01 47.43453 19.26169 463 ft 0 kts 177°
2026-05-05 06:34 47.43474 19.26168 463 ft 4 kts 177°
2026-05-05 06:34 47.43499 19.26166 458 ft 4 kts 176°
2026-05-05 06:34 47.43521 19.26156 460 ft 4 kts 126°
2026-05-05 06:35 47.43523 19.26127 459 ft 4 kts 65°
2026-05-05 06:35 47.43509 19.26094 460 ft 4 kts 49°
2026-05-05 06:35 47.43499 19.26079 460 ft 0 kts 42°
2026-05-05 06:37 47.43507 19.26090 460 ft 3 kts 42°
2026-05-05 06:37 47.43530 19.26121 457 ft 6 kts 42°
2026-05-05 06:38 47.43569 19.26174 463 ft 9 kts 42°
2026-05-05 06:38 47.43624 19.26248 461 ft 12 kts 42°
2026-05-05 06:38 47.43690 19.26337 461 ft 13 kts 42°
2026-05-05 06:38 47.43758 19.26417 463 ft 13 kts 13°
2026-05-05 06:39 47.43833 19.26345 463 ft 15 kts 312°
2026-05-05 06:39 47.43909 19.26224 463 ft 17 kts 312°
2026-05-05 06:39 47.43995 19.26084 463 ft 20 kts 312°
2026-05-05 06:39 47.44089 19.25933 462 ft 20 kts 312°
2026-05-05 06:40 47.44185 19.25777 463 ft 21 kts 312°
2026-05-05 06:40 47.44283 19.25622 464 ft 19 kts 316°
2026-05-05 06:40 47.44390 19.25556 464 ft 17 kts
2026-05-05 06:40 47.44490 19.25646 473 ft 18 kts 59°
2026-05-05 06:41 47.44512 19.25775 478 ft 10 kts 85°
2026-05-05 06:41 47.44483 19.25855 476 ft 0 kts 129°
2026-05-05 06:41 47.44453 19.25906 477 ft 27 kts 131°
2026-05-05 06:41 47.44152 19.26389 472 ft 99 kts 133°
2026-05-05 06:42 47.43544 19.27370 472 ft 156 kts 133°
2026-05-05 06:42 47.42742 19.28653 740 ft 173 kts 134°
2026-05-05 06:42 47.41927 19.29961 1301 ft 174 kts 132°
2026-05-05 06:42 47.41329 19.31571 1805 ft 187 kts 116°
2026-05-05 06:43 47.40736 19.33343 2222 ft 199 kts 123°
2026-05-05 06:43 47.40035 19.35192 2703 ft 214 kts 123°
2026-05-05 06:43 47.39276 19.37185 3106 ft 232 kts 123°
2026-05-05 06:43 47.38465 19.39305 3677 ft 243 kts 125°
2026-05-05 06:44 47.37294 19.41142 4110 ft 252 kts 151°
2026-05-05 06:44 47.35647 19.41968 4775 ft 253 kts 177°
2026-05-05 06:44 47.33917 19.41546 5507 ft 255 kts 203°
2026-05-05 06:44 47.32486 19.40005 6268 ft 259 kts 229°
2026-05-05 06:45 47.31552 19.37720 7004 ft 263 kts 242°
2026-05-05 06:45 47.30759 19.35268 7712 ft 267 kts 242°
2026-05-05 06:45 47.29944 19.32791 8414 ft 270 kts 241°
2026-05-05 06:45 47.29103 19.30295 9126 ft 274 kts 240°
2026-05-05 06:46 47.28235 19.27774 9831 ft 278 kts 240°
2026-05-05 06:46 47.27349 19.25235 10279 ft 290 kts 240°
2026-05-05 06:46 47.26398 19.22518 10548 ft 308 kts 240°
2026-05-05 06:46 47.25390 19.19654 10885 ft 321 kts 240°
2026-05-05 06:47 47.24350 19.16708 11482 ft 326 kts 240°
2026-05-05 06:47 47.23298 19.13738 12144 ft 329 kts 240°
2026-05-05 06:47 47.22234 19.10739 12816 ft 332 kts 240°
2026-05-05 06:47 47.21162 19.07721 13484 ft 335 kts 239°
2026-05-05 06:48 47.19856 19.04897 14090 ft 335 kts 225°
2026-05-05 06:48 47.17995 19.02845 14644 ft 337 kts 205°
2026-05-05 06:48 47.15744 19.01900 15188 ft 340 kts 185°
2026-05-05 06:48 47.13364 19.01992 15753 ft 345 kts 175°
2026-05-05 06:49 47.10963 19.02341 16328 ft 348 kts 175°
2026-05-05 06:49 47.08538 19.02680 16889 ft 352 kts 175°
2026-05-05 06:49 47.06086 19.02986 17459 ft 355 kts 176°
2026-05-05 06:49 47.03609 19.03273 18013 ft 359 kts 176°
2026-05-05 06:50 47.01107 19.03551 18529 ft 363 kts 176°
2026-05-05 06:50 46.98578 19.03827 19006 ft 366 kts 176°
2026-05-05 06:50 46.96027 19.04099 19483 ft 369 kts 176°
2026-05-05 06:50 46.93454 19.04375 19946 ft 372 kts 176°
2026-05-05 06:51 46.90860 19.04678 20409 ft 376 kts 174°
2026-05-05 06:51 46.88308 19.05555 20870 ft 380 kts 160°
2026-05-05 06:51 46.85955 19.07376 21305 ft 385 kts 149°
2026-05-05 06:51 46.83699 19.09520 21747 ft 389 kts 147°
2026-05-05 06:52 46.81430 19.11711 22152 ft 393 kts 148°
2026-05-05 06:52 46.79126 19.13899 22569 ft 397 kts 148°
2026-05-05 06:52 46.76796 19.16081 22981 ft 400 kts 149°
2026-05-05 06:52 46.74441 19.18276 23405 ft 403 kts 148°
2026-05-05 06:53 46.72066 19.20483 23790 ft 407 kts 149°
2026-05-05 06:53 46.69667 19.22701 24139 ft 410 kts 149°
2026-05-05 06:53 46.67254 19.24933 24501 ft 412 kts 148°
2026-05-05 06:53 46.64832 19.27174 24871 ft 414 kts 148°
2026-05-05 06:54 46.62395 19.29429 25204 ft 417 kts 148°
2026-05-05 06:54 46.59942 19.31699 25551 ft 419 kts 148°
2026-05-05 06:54 46.57474 19.33982 25869 ft 422 kts 148°
2026-05-05 06:54 46.54988 19.36276 26155 ft 425 kts 148°
2026-05-05 06:55 46.52479 19.38579 26460 ft 428 kts 148°
2026-05-05 06:55 46.49992 19.40865 26800 ft 430 kts 148°
2026-05-05 06:55 46.47458 19.43190 27130 ft 432 kts 148°
2026-05-05 06:55 46.44914 19.45524 27447 ft 434 kts 148°
2026-05-05 06:56 46.42357 19.47865 27731 ft 436 kts 148°
2026-05-05 06:56 46.39784 19.50218 28051 ft 438 kts 148°
2026-05-05 06:56 46.37196 19.52583 28355 ft 440 kts 148°
2026-05-05 06:56 46.34602 19.54952 28651 ft 442 kts 148°
2026-05-05 06:57 46.31993 19.57336 28931 ft 444 kts 148°
2026-05-05 06:57 46.29369 19.59729 29192 ft 447 kts 148°
2026-05-05 06:57 46.26732 19.62130 29430 ft 450 kts 148°
2026-05-05 06:57 46.24074 19.64547 29684 ft 452 kts 148°
2026-05-05 06:58 46.21408 19.66966 29937 ft 454 kts 148°
2026-05-05 06:58 46.18734 19.69414 30182 ft 456 kts 146°
2026-05-05 06:58 46.16141 19.72073 30414 ft 458 kts 144°
2026-05-05 06:58 46.13567 19.74794 30646 ft 459 kts 143°
2026-05-05 06:59 46.10994 19.77519 30896 ft 460 kts 144°
2026-05-05 06:59 46.08416 19.80245 31193 ft 459 kts 144°
2026-05-05 06:59 46.05846 19.82961 31480 ft 458 kts 144°
2026-05-05 06:59 46.03279 19.85663 31754 ft 457 kts 144°
2026-05-05 07:00 46.00712 19.88363 32022 ft 456 kts 144°
2026-05-05 07:00 45.98152 19.91052 32282 ft 456 kts 144°
2026-05-05 07:00 45.95593 19.93738 32547 ft 455 kts 144°
2026-05-05 07:00 45.93040 19.96413 32802 ft 454 kts 144°
2026-05-05 07:01 45.90489 19.99081 33034 ft 454 kts 144°
2026-05-05 07:01 45.85391 20.04406 33082 ft 453 kts 144°
2026-05-05 07:02 45.80290 20.09725 33058 ft 455 kts 144°
2026-05-05 07:02 45.75172 20.15048 33057 ft 455 kts 144°
2026-05-05 07:03 45.70049 20.20366 33056 ft 455 kts 144°
2026-05-05 07:03 45.64923 20.25670 33056 ft 455 kts 144°
2026-05-05 07:04 45.59797 20.30963 33059 ft 455 kts 144°
2026-05-05 07:04 45.54646 20.36266 33063 ft 458 kts 144°
2026-05-05 07:05 45.49517 20.41538 33056 ft 457 kts 144°
2026-05-05 07:05 45.44354 20.46834 33058 ft 457 kts 144°
2026-05-05 07:06 45.39188 20.52120 33056 ft 457 kts 144°
2026-05-05 07:06 45.34019 20.57402 33064 ft 459 kts 144°
2026-05-05 07:07 45.28828 20.62695 33062 ft 460 kts 144°
2026-05-05 07:07 45.23631 20.67978 33061 ft 459 kts 144°
2026-05-05 07:08 45.18431 20.73252 33058 ft 459 kts 144°
2026-05-05 07:08 45.13230 20.78511 33059 ft 459 kts 144°
2026-05-05 07:09 45.08003 20.83784 33059 ft 462 kts 144°
2026-05-05 07:09 45.02765 20.89064 33060 ft 462 kts 144°
2026-05-05 07:10 44.97525 20.94328 33058 ft 462 kts 144°
2026-05-05 07:10 44.92286 20.99583 33059 ft 462 kts 144°
2026-05-05 07:11 44.87034 21.04836 33063 ft 465 kts 144°
2026-05-05 07:11 44.81752 21.10105 33062 ft 466 kts 144°
2026-05-05 07:12 44.76462 21.15372 33061 ft 465 kts 144°
2026-05-05 07:12 44.71118 21.20524 33070 ft 466 kts 146°
2026-05-05 07:13 44.65746 21.25617 33088 ft 466 kts 145°
2026-05-05 07:13 44.60361 21.30710 33074 ft 467 kts 146°
2026-05-05 07:14 44.54972 21.35791 33071 ft 467 kts 146°
2026-05-05 07:14 44.49611 21.40838 33075 ft 468 kts 146°
2026-05-05 07:15 44.44214 21.45911 33076 ft 467 kts 146°
2026-05-05 07:15 44.38808 21.50979 33081 ft 468 kts 146°
2026-05-05 07:16 44.33399 21.56037 33082 ft 468 kts 146°
2026-05-05 07:16 44.27984 21.61093 33073 ft 468 kts 146°
2026-05-05 07:17 44.22559 21.66144 33084 ft 469 kts 146°
2026-05-05 07:17 44.17127 21.71187 33094 ft 469 kts 146°
2026-05-05 07:18 44.11691 21.76227 33092 ft 469 kts 146°
2026-05-05 07:18 44.06251 21.81257 33092 ft 470 kts 146°
2026-05-05 07:19 44.00807 21.86284 33093 ft 471 kts 146°
2026-05-05 07:19 43.95347 21.91309 33107 ft 471 kts 146°
2026-05-05 07:20 43.89887 21.96325 33105 ft 471 kts 146°
2026-05-05 07:20 43.85346 22.00488 33106 ft 471 kts 146°
2026-05-05 07:21 43.79879 22.05488 33111 ft 471 kts 146°
2026-05-05 07:21 43.74407 22.10483 33111 ft 472 kts 146°
2026-05-05 07:22 43.68931 22.15475 33112 ft 472 kts 146°
2026-05-05 07:22 43.63446 22.20457 33116 ft 472 kts 146°
2026-05-05 07:23 43.57960 22.25432 33115 ft 472 kts 146°
2026-05-05 07:23 43.52468 22.30402 33110 ft 473 kts 146°
2026-05-05 07:24 43.46965 22.35369 33121 ft 473 kts 146°
2026-05-05 07:24 43.41458 22.40331 33120 ft 473 kts 146°
2026-05-05 07:25 43.35951 22.45277 33123 ft 473 kts 146°
2026-05-05 07:25 43.30442 22.50220 33114 ft 473 kts 146°
2026-05-05 07:26 43.24925 22.55159 33134 ft 474 kts 146°
2026-05-05 07:26 43.19396 22.60092 33128 ft 474 kts 146°
2026-05-05 07:27 43.13868 22.65020 33129 ft 474 kts 146°
2026-05-05 07:27 43.08337 22.69938 33129 ft 474 kts 146°
2026-05-05 07:28 43.02795 22.74852 33131 ft 475 kts 146°
2026-05-05 07:28 42.97250 22.79780 33131 ft 476 kts 144°
2026-05-05 07:29 42.91816 22.84934 33129 ft 476 kts 144°
2026-05-05 07:29 42.86391 22.90105 33131 ft 476 kts 144°
2026-05-05 07:30 42.80955 22.95270 33121 ft 478 kts 144°
2026-05-05 07:30 42.72800 23.02990 33140 ft 478 kts 144°
2026-05-05 07:31 42.67334 23.08154 33142 ft 478 kts 144°
2026-05-05 07:31 42.61868 23.13305 33164 ft 478 kts 143°
2026-05-05 07:32 42.56392 23.18450 33147 ft 479 kts 144°
2026-05-05 07:32 42.50913 23.23594 33138 ft 479 kts 144°
2026-05-05 07:33 42.45431 23.28727 33136 ft 479 kts 144°
2026-05-05 07:33 42.39944 23.33853 33136 ft 479 kts 144°
2026-05-05 07:34 42.34458 23.38967 33134 ft 479 kts 144°
2026-05-05 07:34 42.28970 23.44074 33144 ft 478 kts 144°
2026-05-05 07:35 42.23494 23.49153 33135 ft 478 kts 144°
2026-05-05 07:35 42.18019 23.54228 33121 ft 478 kts 144°
2026-05-05 07:36 42.12536 23.59294 33122 ft 478 kts 144°
2026-05-05 07:36 42.07041 23.64360 33111 ft 480 kts 144°
2026-05-05 07:37 42.01523 23.69435 33115 ft 481 kts 144°
2026-05-05 07:37 41.95999 23.74506 33111 ft 481 kts 144°
2026-05-05 07:38 41.90491 23.79553 33106 ft 479 kts 144°
2026-05-05 07:38 41.84981 23.84591 33094 ft 480 kts 144°
2026-05-05 07:39 41.79455 23.89635 33093 ft 480 kts 144°
2026-05-05 07:39 41.73929 23.94668 33090 ft 480 kts 144°
2026-05-05 07:40 41.68401 23.99692 33086 ft 480 kts 144°
2026-05-05 07:40 41.62871 24.04708 33067 ft 480 kts 144°
2026-05-05 07:41 41.57362 24.09692 33090 ft 476 kts 145°
2026-05-05 07:41 41.51878 24.14634 33071 ft 476 kts 145°
2026-05-05 07:42 41.46377 24.19546 33068 ft 476 kts 145°
2026-05-05 07:42 41.40912 24.24421 33073 ft 476 kts 145°
2026-05-05 07:43 41.35406 24.29322 33067 ft 476 kts 145°
2026-05-05 07:43 41.29899 24.34214 33069 ft 476 kts 145°
2026-05-05 07:44 41.24392 24.39100 33086 ft 476 kts 146°
2026-05-05 07:44 41.18838 24.43829 33076 ft 475 kts 152°
2026-05-05 07:45 41.12902 24.47686 33075 ft 475 kts 154°
2026-05-05 07:45 41.06937 24.51478 33084 ft 476 kts 154°
2026-05-05 07:46 41.00972 24.55282 33080 ft 476 kts 154°
2026-05-05 07:46 40.95013 24.59084 33082 ft 476 kts 154°
2026-05-05 07:47 40.89039 24.62883 33079 ft 477 kts 154°
2026-05-05 07:47 40.83061 24.66681 33083 ft 477 kts 154°
2026-05-05 07:48 40.77076 24.70478 33090 ft 477 kts 154°
2026-05-05 07:48 40.71094 24.74280 33085 ft 478 kts 154°
2026-05-05 07:49 40.65102 24.78077 33085 ft 478 kts 154°
2026-05-05 07:49 40.59104 24.81857 33088 ft 478 kts 154°
2026-05-05 07:50 40.53103 24.85636 33088 ft 478 kts 154°
2026-05-05 07:50 40.47103 24.89405 33089 ft 478 kts 154°
2026-05-05 07:51 40.41101 24.93170 33086 ft 478 kts 154°
2026-05-05 07:51 40.35092 24.96931 33089 ft 478 kts 155°
2026-05-05 07:52 40.29086 25.00682 33091 ft 478 kts 155°
2026-05-05 07:52 40.23102 25.04411 33089 ft 476 kts 155°
2026-05-05 07:53 40.17164 25.08107 33089 ft 476 kts 155°
2026-05-05 07:53 40.11183 25.11823 33090 ft 476 kts 155°
2026-05-05 07:54 40.05201 25.15527 33084 ft 476 kts 155°
2026-05-05 07:54 39.99221 25.19225 33083 ft 476 kts 155°
2026-05-05 07:55 39.93255 25.22959 33081 ft 476 kts 151°
2026-05-05 07:55 39.90494 25.25327 33080 ft 475 kts 140°
2026-05-05 07:55 39.87974 25.28113 33085 ft 475 kts 137°
2026-05-05 07:56 39.83035 25.33824 33105 ft 475 kts 137°
2026-05-05 07:56 39.78073 25.39485 33098 ft 475 kts 138°
2026-05-05 07:57 39.73093 25.45122 33098 ft 475 kts 138°
2026-05-05 07:57 39.68110 25.50754 33096 ft 475 kts 138°
2026-05-05 07:58 39.63120 25.56383 33097 ft 475 kts 138°
2026-05-05 07:58 39.58129 25.62005 33097 ft 475 kts 138°
2026-05-05 07:59 39.53143 25.67605 33102 ft 473 kts 139°
2026-05-05 07:59 39.48166 25.73183 33098 ft 473 kts 139°
2026-05-05 08:00 39.43183 25.78758 33091 ft 473 kts 139°
2026-05-05 08:00 39.38199 25.84323 33100 ft 474 kts 139°
2026-05-05 08:01 39.33211 25.89880 33099 ft 473 kts 139°
2026-05-05 08:01 39.28220 25.95430 33105 ft 473 kts 140°
2026-05-05 08:02 39.23209 26.00815 33099 ft 472 kts 140°
2026-05-05 08:02 39.18160 26.06216 33097 ft 472 kts 140°
2026-05-05 08:03 39.13114 26.11622 33087 ft 471 kts 140°
2026-05-05 08:03 39.08071 26.17017 33098 ft 471 kts 140°
2026-05-05 08:04 39.03025 26.22404 33099 ft 471 kts 140°
2026-05-05 08:04 38.97979 26.27776 33107 ft 469 kts 141°
2026-05-05 08:05 38.92957 26.33114 33105 ft 468 kts 141°
2026-05-05 08:05 38.87931 26.38442 33103 ft 468 kts 141°
2026-05-05 08:06 38.82915 26.43791 33101 ft 469 kts 139°
2026-05-05 08:06 38.78005 26.49297 33099 ft 469 kts 139°
2026-05-05 08:07 38.73088 26.54804 33097 ft 469 kts 139°
2026-05-05 08:07 38.68976 26.59398 33097 ft 466 kts 140°
2026-05-05 08:08 38.64090 26.64859 33095 ft 467 kts 140°
2026-05-05 08:08 38.59230 26.70277 33095 ft 467 kts 140°
2026-05-05 08:09 38.54327 26.75725 33091 ft 467 kts 140°
2026-05-05 08:09 38.49427 26.81172 33091 ft 467 kts 140°
2026-05-05 08:10 38.44517 26.86598 33089 ft 467 kts 140°
2026-05-05 08:10 38.39616 26.92021 33083 ft 466 kts 140°
2026-05-05 08:11 38.34716 26.97430 33061 ft 466 kts 140°
2026-05-05 08:11 38.29419 27.02072 33045 ft 461 kts 156°
2026-05-05 08:12 38.23553 27.05326 33052 ft 460 kts 159°
2026-05-05 08:12 38.17669 27.08539 33055 ft 460 kts 158°
2026-05-05 08:13 38.11794 27.11784 33064 ft 461 kts 158°
2026-05-05 08:13 38.05916 27.15037 33058 ft 461 kts 158°
2026-05-05 08:14 38.00043 27.18277 33072 ft 461 kts 158°
2026-05-05 08:14 37.94165 27.21515 33082 ft 461 kts 158°
2026-05-05 08:15 37.88287 27.24748 33081 ft 461 kts 158°
2026-05-05 08:15 37.82402 27.27974 33082 ft 461 kts 159°
2026-05-05 08:16 37.76515 27.31196 33077 ft 461 kts 158°
2026-05-05 08:16 37.70633 27.34414 33074 ft 461 kts 158°
2026-05-05 08:17 37.64753 27.37625 33066 ft 460 kts 158°
2026-05-05 08:17 37.58906 27.40933 33060 ft 461 kts 157°
2026-05-05 08:18 37.53119 27.44254 33057 ft 459 kts 157°
2026-05-05 08:18 37.47229 27.47499 33078 ft 459 kts 159°
2026-05-05 08:19 37.41344 27.50591 33059 ft 463 kts 159°
2026-05-05 08:19 37.35397 27.53706 33054 ft 463 kts 159°
2026-05-05 08:20 37.29447 27.56822 33049 ft 463 kts 159°
2026-05-05 08:20 37.23521 27.59991 33054 ft 463 kts 158°
2026-05-05 08:21 37.17611 27.63217 33053 ft 463 kts 158°
2026-05-05 08:21 37.11696 27.66423 33051 ft 463 kts 159°
2026-05-05 08:22 37.05778 27.69623 33048 ft 463 kts 159°
2026-05-05 08:22 36.99863 27.72814 33046 ft 463 kts 159°
2026-05-05 08:23 36.93945 27.76002 33040 ft 463 kts 159°
2026-05-05 08:23 36.88028 27.79186 33043 ft 463 kts 159°
2026-05-05 08:24 36.82109 27.82356 33030 ft 463 kts 159°
2026-05-05 08:24 36.76193 27.85520 33033 ft 462 kts 159°
2026-05-05 08:25 36.70283 27.88687 33032 ft 462 kts 159°
2026-05-05 08:25 36.64348 27.91782 33030 ft 462 kts 159°
2026-05-05 08:26 36.58413 27.94865 33031 ft 462 kts 159°
2026-05-05 08:26 36.52505 27.97940 33021 ft 459 kts 159°
2026-05-05 08:27 36.46635 28.01102 33021 ft 460 kts 158°
2026-05-05 08:27 36.40799 28.04376 33023 ft 460 kts 158°
2026-05-05 08:28 36.35024 28.07813 33024 ft 462 kts 150°
2026-05-05 08:28 36.32456 28.10217 33023 ft 465 kts 137°
2026-05-05 08:28 36.30203 28.13101 33023 ft 466 kts 133°
2026-05-05 08:29 36.25878 28.19028 33026 ft 467 kts 133°
2026-05-05 08:30 36.19281 28.27891 33019 ft 467 kts 133°
2026-05-05 08:30 36.14865 28.33783 33021 ft 467 kts 133°
2026-05-05 08:31 36.10424 28.39649 33026 ft 469 kts 133°
2026-05-05 08:31 36.05966 28.45543 33019 ft 469 kts 133°
2026-05-05 08:32 36.01519 28.51445 33020 ft 469 kts 133°
2026-05-05 08:32 35.97068 28.57338 33009 ft 468 kts 133°
2026-05-05 08:33 35.92623 28.63201 33020 ft 468 kts 133°
2026-05-05 08:33 35.88155 28.69042 33023 ft 469 kts 136°
2026-05-05 08:34 35.83456 28.74631 33025 ft 469 kts 137°
2026-05-05 08:34 35.78738 28.80198 33016 ft 469 kts 137°
2026-05-05 08:35 35.74024 28.85757 33014 ft 469 kts 137°
2026-05-05 08:35 35.69304 28.91307 33015 ft 469 kts 137°
2026-05-05 08:36 35.64583 28.96855 33008 ft 470 kts 137°
2026-05-05 08:36 35.59849 29.02410 33016 ft 471 kts 137°
2026-05-05 08:37 35.55109 29.07972 33018 ft 471 kts 137°
2026-05-05 08:37 35.50363 29.13523 33016 ft 471 kts 137°
2026-05-05 08:38 35.45647 29.19030 33013 ft 471 kts 137°
2026-05-05 08:38 35.40892 29.24565 33015 ft 472 kts 137°
2026-05-05 08:39 35.36110 29.30117 33017 ft 475 kts 137°
2026-05-05 08:39 35.31321 29.35675 33004 ft 472 kts 137°
2026-05-05 08:40 35.26553 29.41198 33007 ft 472 kts 137°
2026-05-05 08:40 35.21778 29.46721 33012 ft 472 kts 137°
2026-05-05 08:41 35.17006 29.52230 33017 ft 472 kts 137°
2026-05-05 08:41 35.12225 29.57740 33015 ft 474 kts 138°
2026-05-05 08:42 35.07416 29.63268 33018 ft 475 kts 138°
2026-05-05 08:42 35.02610 29.68793 33015 ft 475 kts 138°
2026-05-05 08:43 34.97800 29.74298 33009 ft 474 kts 138°
2026-05-05 08:43 34.93043 29.79841 33021 ft 473 kts 137°
2026-05-05 08:44 34.88296 29.85407 33017 ft 475 kts 137°
2026-05-05 08:44 34.83520 29.90980 33011 ft 476 kts 137°
2026-05-05 08:45 34.78735 29.96540 33013 ft 476 kts 137°
2026-05-05 08:45 34.73509 30.01372 33013 ft 470 kts 155°
2026-05-05 08:46 34.67664 30.04789 33012 ft 469 kts 158°
2026-05-05 08:46 34.61761 30.08177 33014 ft 469 kts 158°
2026-05-05 08:47 34.55870 30.11593 33018 ft 469 kts 158°
2026-05-05 08:47 34.49976 30.15033 33020 ft 470 kts 158°
2026-05-05 08:48 34.44078 30.18466 33015 ft 470 kts 158°
2026-05-05 08:48 34.38178 30.21893 33021 ft 470 kts 158°
2026-05-05 08:49 34.32276 30.25313 33014 ft 470 kts 158°
2026-05-05 08:49 34.26373 30.28728 33022 ft 470 kts 158°
2026-05-05 08:50 34.20468 30.32136 33028 ft 470 kts 158°
2026-05-05 08:50 34.14568 30.35543 33012 ft 470 kts 158°
2026-05-05 08:51 34.08671 30.38941 33027 ft 470 kts 158°
2026-05-05 08:51 34.02769 30.42333 33026 ft 470 kts 158°
2026-05-05 08:52 33.96859 30.45719 33025 ft 470 kts 158°
2026-05-05 08:52 33.90952 30.49107 33016 ft 470 kts 158°
2026-05-05 08:53 33.85051 30.52484 33029 ft 469 kts 158°
2026-05-05 08:53 33.79154 30.55857 33026 ft 469 kts 158°
2026-05-05 08:54 33.73257 30.59226 33029 ft 469 kts 159°
2026-05-05 08:54 33.68353 30.62018 33030 ft 469 kts 159°
2026-05-05 08:55 33.62427 30.65316 33009 ft 470 kts 159°
2026-05-05 08:55 33.56511 30.68720 33027 ft 472 kts 159°
2026-05-05 08:56 33.49619 30.72652 33033 ft 472 kts 159°
2026-05-05 08:56 33.44645 30.75468 33031 ft 472 kts 159°
2026-05-05 08:57 33.38707 30.78823 33039 ft 472 kts 159°
2026-05-05 08:57 33.32755 30.82181 33029 ft 475 kts 159°
2026-05-05 08:58 33.26778 30.85550 33040 ft 475 kts 159°
2026-05-05 08:58 33.20792 30.88918 33043 ft 475 kts 159°
2026-05-05 08:59 33.14810 30.92279 33046 ft 475 kts 159°
2026-05-05 08:59 33.08693 30.95076 33020 ft 466 kts 174°
2026-05-05 09:00 33.02340 30.96067 33049 ft 466 kts 176°
2026-05-05 09:00 32.95960 30.97365 33054 ft 464 kts 178°
2026-05-05 09:01 32.89567 30.98205 33056 ft 461 kts 181°
2026-05-05 09:01 32.83177 30.98911 33027 ft 461 kts 181°
2026-05-05 09:02 32.76793 30.99617 33052 ft 461 kts 181°
2026-05-05 09:02 32.70406 31.00327 33060 ft 461 kts 181°
2026-05-05 09:03 32.64024 31.01037 33062 ft 461 kts 181°
2026-05-05 09:03 32.57648 31.01745 33048 ft 459 kts 181°
2026-05-05 09:04 32.51290 31.02449 33061 ft 459 kts 182°
2026-05-05 09:04 32.48151 31.02379 33059 ft 447 kts 194°
2026-05-05 09:04 32.45040 31.02076 33060 ft 455 kts 185°
2026-05-05 09:04 32.41872 31.02615 33072 ft 465 kts 174°
2026-05-05 09:05 32.38704 31.03401 33072 ft 461 kts 179°
2026-05-05 09:05 32.35548 31.03464 33048 ft 450 kts 191°
2026-05-05 09:05 32.32417 31.03265 33066 ft 454 kts 188°
2026-05-05 09:05 32.29234 31.03714 33078 ft 469 kts 173°
2026-05-05 09:06 32.26048 31.04516 33070 ft 462 kts 182°
2026-05-05 09:06 32.19685 31.04808 33093 ft 462 kts 181°
2026-05-05 09:07 32.13291 31.05666 33072 ft 463 kts 181°
2026-05-05 09:07 32.06867 31.06429 33075 ft 465 kts 183°
2026-05-05 09:08 32.00429 31.07129 33084 ft 464 kts 183°
2026-05-05 09:08 31.93995 31.07807 33084 ft 464 kts 183°
2026-05-05 09:09 31.87605 31.08487 33079 ft 465 kts 183°
2026-05-05 09:09 31.81150 31.09180 33084 ft 465 kts 183°
2026-05-05 09:10 31.74702 31.09873 33087 ft 465 kts 183°
2026-05-05 09:10 31.68253 31.10566 33088 ft 465 kts 183°
2026-05-05 09:11 31.61808 31.11257 33065 ft 467 kts 184°
2026-05-05 09:11 31.55332 31.11946 33082 ft 467 kts 184°
2026-05-05 09:12 31.48846 31.12963 33086 ft 473 kts 179°
2026-05-05 09:12 31.42356 31.14225 33096 ft 472 kts 179°
2026-05-05 09:13 31.35864 31.15457 33083 ft 473 kts 179°
2026-05-05 09:13 31.29358 31.16682 33084 ft 474 kts 179°
2026-05-05 09:14 31.22850 31.17898 33082 ft 473 kts 180°
2026-05-05 09:14 31.16342 31.19104 33082 ft 473 kts 180°
2026-05-05 09:15 31.09857 31.20310 33059 ft 471 kts 180°
2026-05-05 09:15 31.03379 31.21500 33079 ft 471 kts 180°
2026-05-05 09:16 30.96898 31.22707 33077 ft 471 kts 180°
2026-05-05 09:16 30.90422 31.23912 33077 ft 471 kts 180°
2026-05-05 09:17 30.83975 31.25110 33062 ft 466 kts 180°
2026-05-05 09:17 30.77591 31.26291 33076 ft 465 kts 180°
2026-05-05 09:18 30.71203 31.27470 33077 ft 465 kts 180°
2026-05-05 09:18 30.64855 31.28641 33080 ft 465 kts 180°
2026-05-05 09:19 30.58489 31.29816 33069 ft 463 kts 180°
2026-05-05 09:19 30.52136 31.30984 33077 ft 462 kts 180°
2026-05-05 09:20 30.45782 31.32153 33082 ft 462 kts 180°
2026-05-05 09:20 30.39432 31.33322 33083 ft 462 kts 180°
2026-05-05 09:21 30.33096 31.34488 33069 ft 459 kts 180°
2026-05-05 09:21 30.26782 31.35722 33082 ft 465 kts 176°
2026-05-05 09:22 30.20484 31.37418 33105 ft 460 kts 180°
2026-05-05 09:22 30.14181 31.38295 33112 ft 454 kts 184°
2026-05-05 09:23 30.07958 31.40094 33094 ft 479 kts 161°
2026-05-05 09:23 30.02196 31.44083 33109 ft 484 kts 155°
2026-05-05 09:24 29.96850 31.48947 33106 ft 493 kts 146°
2026-05-05 09:24 29.91541 31.53892 33102 ft 488 kts 150°
2026-05-05 09:25 29.86101 31.58546 33107 ft 486 kts 151°
2026-05-05 09:25 29.80653 31.63159 33088 ft 485 kts 151°
2026-05-05 09:26 29.75230 31.67760 33109 ft 484 kts 151°
2026-05-05 09:26 29.69842 31.72327 33111 ft 484 kts 151°
2026-05-05 09:27 29.64419 31.76918 33114 ft 484 kts 151°
2026-05-05 09:27 29.58994 31.81505 33111 ft 484 kts 151°
2026-05-05 09:28 29.53592 31.86120 33108 ft 484 kts 151°
2026-05-05 09:28 29.48190 31.90698 33094 ft 481 kts 151°
2026-05-05 09:29 29.42799 31.95235 33111 ft 481 kts 151°
2026-05-05 09:29 29.37411 31.99774 33111 ft 480 kts 151°
2026-05-05 09:30 29.32018 32.04301 33115 ft 481 kts 151°
2026-05-05 09:30 29.26621 32.08828 33108 ft 480 kts 152°
2026-05-05 09:31 29.21240 32.13344 33111 ft 480 kts 152°
2026-05-05 09:31 29.15853 32.17850 33112 ft 479 kts 152°
2026-05-05 09:32 29.10464 32.22349 33108 ft 479 kts 152°
2026-05-05 09:32 29.05113 32.26815 33110 ft 479 kts 152°
2026-05-05 09:33 28.99727 32.31304 33106 ft 479 kts 152°
2026-05-05 09:33 28.94335 32.35793 33096 ft 479 kts 152°
2026-05-05 09:34 28.88953 32.40261 33110 ft 478 kts 152°
2026-05-05 09:34 28.83597 32.44714 33095 ft 475 kts 152°
2026-05-05 09:35 28.78250 32.49147 33099 ft 475 kts 151°
2026-05-05 09:35 28.70238 32.55780 33104 ft 475 kts 152°
2026-05-05 09:36 28.64895 32.60195 33111 ft 475 kts 152°
2026-05-05 09:36 28.59609 32.64563 32948 ft 458 kts 152°
2026-05-05 09:37 28.57054 32.66675 32711 ft 452 kts 152°
2026-05-05 09:37 28.54519 32.68762 32426 ft 449 kts 152°
2026-05-05 09:37 28.51994 32.70839 32173 ft 447 kts 152°
2026-05-05 09:37 28.49478 32.72906 31910 ft 445 kts 152°
2026-05-05 09:38 28.46973 32.74965 31662 ft 444 kts 152°
2026-05-05 09:38 28.44477 32.77017 31415 ft 442 kts 152°
2026-05-05 09:38 28.41989 32.79062 31173 ft 441 kts 152°
2026-05-05 09:38 28.39508 32.81101 30928 ft 439 kts 152°
2026-05-05 09:39 28.37033 32.83132 30690 ft 438 kts 152°
2026-05-05 09:39 28.34568 32.85155 30447 ft 437 kts 152°
2026-05-05 09:39 28.32106 32.87171 30211 ft 435 kts 152°
2026-05-05 09:39 28.29655 32.89179 29951 ft 434 kts 152°
2026-05-05 09:40 28.27210 32.91181 29680 ft 433 kts 152°
2026-05-05 09:40 28.24806 32.93148 29401 ft 431 kts 152°
2026-05-05 09:40 28.22383 32.95131 29081 ft 428 kts 152°
2026-05-05 09:40 28.19977 32.97101 28800 ft 425 kts 152°
2026-05-05 09:41 28.17591 32.99052 28380 ft 421 kts 152°
2026-05-05 09:41 28.15192 33.01010 27892 ft 418 kts 152°
2026-05-05 09:41 28.12872 33.02901 27414 ft 415 kts 152°
2026-05-05 09:41 28.10531 33.04809 26906 ft 414 kts 152°
2026-05-05 09:42 28.08200 33.06708 26409 ft 412 kts 152°
2026-05-05 09:42 28.05878 33.08600 25918 ft 411 kts 152°
2026-05-05 09:42 28.03559 33.10487 25447 ft 409 kts 152°
2026-05-05 09:42 28.01251 33.12366 24977 ft 408 kts 152°
2026-05-05 09:43 27.98947 33.14240 24487 ft 408 kts 152°
2026-05-05 09:43 27.96645 33.16111 23985 ft 408 kts 152°
2026-05-05 09:43 27.94345 33.17980 23498 ft 407 kts 152°
2026-05-05 09:43 27.92048 33.19845 22929 ft 405 kts 151°
2026-05-05 09:44 27.89766 33.21700 22434 ft 403 kts 151°
2026-05-05 09:44 27.87491 33.23545 21929 ft 401 kts 151°
2026-05-05 09:44 27.85990 33.24761 21606 ft 400 kts 151°
2026-05-05 09:44 27.82976 33.27205 20960 ft 397 kts 151°
2026-05-05 09:45 27.81493 33.28407 20648 ft 396 kts 151°
2026-05-05 09:45 27.79261 33.30214 20190 ft 394 kts 151°
2026-05-05 09:45 27.77042 33.32010 19743 ft 392 kts 151°
2026-05-05 09:45 27.74834 33.33797 19306 ft 389 kts 151°
2026-05-05 09:46 27.72638 33.35573 18877 ft 387 kts 150°
2026-05-05 09:46 27.70465 33.37332 18445 ft 382 kts 150°
2026-05-05 09:46 27.68315 33.39069 17987 ft 378 kts 150°
2026-05-05 09:46 27.66194 33.40781 17540 ft 372 kts 150°
2026-05-05 09:47 27.64102 33.42468 17135 ft 367 kts 150°
2026-05-05 09:47 27.62042 33.44130 16721 ft 361 kts 150°
2026-05-05 09:47 27.60014 33.45765 16314 ft 356 kts 150°
2026-05-05 09:47 27.58021 33.47371 15956 ft 349 kts 150°
2026-05-05 09:48 27.56057 33.48953 15619 ft 345 kts 150°
2026-05-05 09:48 27.54101 33.50525 15269 ft 346 kts 150°
2026-05-05 09:48 27.52135 33.52084 14908 ft 345 kts 153°
2026-05-05 09:48 27.50022 33.53316 14519 ft 341 kts 162°
2026-05-05 09:49 27.47836 33.54370 14133 ft 343 kts 163°
2026-05-05 09:49 27.45634 33.55417 13746 ft 344 kts 162°
2026-05-05 09:49 27.43437 33.56470 13339 ft 341 kts 162°
2026-05-05 09:49 27.41271 33.57517 12944 ft 336 kts 162°
2026-05-05 09:50 27.39146 33.58547 12564 ft 330 kts 162°
2026-05-05 09:50 27.37056 33.59560 12184 ft 325 kts 162°
2026-05-05 09:50 27.34977 33.60474 11809 ft 317 kts 168°
2026-05-05 09:50 27.32879 33.61132 11458 ft 311 kts 170°
2026-05-05 09:51 27.30792 33.61741 11107 ft 310 kts 171°
2026-05-05 09:51 27.28707 33.62349 10751 ft 309 kts 170°
2026-05-05 09:51 27.26627 33.62960 10417 ft 309 kts 169°
2026-05-05 09:51 27.24550 33.63573 10096 ft 306 kts 169°
2026-05-05 09:52 27.22512 33.64177 9764 ft 300 kts 169°
2026-05-05 09:52 27.20497 33.64775 9391 ft 299 kts 169°
2026-05-05 09:52 27.18486 33.65370 9024 ft 299 kts 169°
2026-05-05 09:52 27.16480 33.65963 8668 ft 298 kts 169°
2026-05-05 09:53 27.14481 33.66556 8316 ft 297 kts 169°
2026-05-05 09:53 27.12486 33.67147 7968 ft 296 kts 168°
2026-05-05 09:53 27.10499 33.67736 7634 ft 295 kts 168°
2026-05-05 09:53 27.08517 33.68325 7300 ft 295 kts 168°
2026-05-05 09:54 27.06533 33.68915 6951 ft 295 kts 169°
2026-05-05 09:54 27.04550 33.69502 6601 ft 295 kts 169°
2026-05-05 09:54 27.02586 33.70083 6344 ft 287 kts 168°
2026-05-05 09:54 27.00694 33.70646 6173 ft 276 kts 167°
2026-05-05 09:55 26.98878 33.71182 6038 ft 263 kts 167°
2026-05-05 09:55 26.97166 33.71686 6005 ft 245 kts 168°
2026-05-05 09:55 26.95627 33.72330 5952 ft 232 kts 150°
2026-05-05 09:55 26.94490 33.73591 5667 ft 232 kts 120°
2026-05-05 09:56 26.93721 33.75180 5333 ft 231 kts 109°
2026-05-05 09:56 26.93642 33.76931 4971 ft 226 kts 70°
2026-05-05 09:56 26.94517 33.78328 4606 ft 219 kts 32°
2026-05-05 09:56 26.95811 33.79208 4246 ft 217 kts 28°
2026-05-05 09:57 26.97056 33.80109 3961 ft 208 kts 32°
2026-05-05 09:57 26.98208 33.81060 3664 ft 203 kts 35°
2026-05-05 09:57 26.99305 33.82034 3362 ft 199 kts 36°
2026-05-05 09:57 27.00355 33.83000 3050 ft 192 kts 34°
2026-05-05 09:58 27.01370 33.83950 2758 ft 188 kts 32°
2026-05-05 09:58 27.02477 33.84571 2435 ft 173 kts
2026-05-05 09:58 27.03633 33.84460 2208 ft 165 kts 345°
2026-05-05 09:58 27.04743 33.84129 2166 ft 168 kts 342°
2026-05-05 09:59 27.05852 33.83775 2120 ft 161 kts 342°
2026-05-05 09:59 27.06898 33.83449 1982 ft 152 kts 342°
2026-05-05 09:59 27.07896 33.83142 1783 ft 145 kts 343°
2026-05-05 09:59 27.08820 33.82859 1582 ft 127 kts 343°
2026-05-05 10:00 27.09661 33.82601 1399 ft 128 kts 344°
2026-05-05 10:00 27.10504 33.82341 1238 ft 123 kts 342°
2026-05-05 10:00 27.11333 33.82069 1044 ft 123 kts 342°
2026-05-05 10:00 27.12165 33.81796 853 ft 126 kts 342°
2026-05-05 10:01 27.13009 33.81537 707 ft 124 kts 345°
2026-05-05 10:01 27.13844 33.81299 556 ft 125 kts 344°
2026-05-05 10:01 27.14682 33.81037 334 ft 123 kts 343°
2026-05-05 10:01 27.15497 33.80796 215 ft 120 kts 345°
2026-05-05 10:02 27.16310 33.80555 91 ft 120 kts 346°
2026-05-05 10:02 27.17047 33.80338 52 ft 78 kts 345°
2026-05-05 10:02 27.17301 33.80263 56 ft 14 kts 346°
2026-05-05 10:02 27.17390 33.80240 52 ft 10 kts
2026-05-05 10:03 27.17422 33.80312 54 ft 11 kts 77°
2026-05-05 10:03 27.17443 33.80406 58 ft 14 kts 75°
2026-05-05 10:03 27.17469 33.80509 62 ft 15 kts 74°
2026-05-05 10:03 27.17512 33.80611 63 ft 15 kts 22°
2026-05-05 10:04 27.17601 33.80599 58 ft 10 kts 343°
2026-05-05 10:04 27.17664 33.80579 57 ft 6 kts 345°
2026-05-05 10:04 27.17696 33.80612 57 ft 8 kts 78°
2026-05-05 10:04 27.17706 33.80659 59 ft 6 kts 75°
2026-05-05 10:05 27.17709 33.80672 58 ft 2 kts 76°
2026-05-05 10:05 27.17709 33.80673 58 ft 0 kts 76°